Location: North Evanston
(42.0634°N, 87.6976°W)
Time: 20:45:24
(UTC+00:00)

Injun/Solrad 3 - Pass Details

Date: 16 May 2026
Orbit: 867 x 989 km, 66.8° (Epoch: 6 June)

Event Time Altitude Azimuth Distance (km) Brightness Sun altitude
Rises 19:07:26 0° 149° (SSE) 3,500 11.0 61.5°
Reaches altitude 10° 19:12:03 10° 116° (ESE) 2,598 10.3 61.0°
Maximum altitude 19:13:41 11° 100° (E) 2,529 10.1 60.7°
Drops below altitude 10° 19:15:21 10° 84° (E) 2,627 10.1 60.5°
Sets 19:20:05 0° 51° (NE) 3,612 10.7 59.9°
